CAPE
0 0 0 0 2 98 212 415 466 584 675 694 610 701 575 658 302 77 0 87 103 260 82 29 2 3 0 3 8 7 2 5 6
0 0 0 0 0 0 0 0 100 298 495 509 735 804 750 533 180 51 0 0 141 385 176 55 43 2 7 5 11 7 9 3 3
0 0 0 0 0 0 0 0 0 0 11 178 331 417 592 607 428 86 0 2 241 407 299 167 191 28 8 12 20 15 18 8 2
0 0 0 0 0 0 0 0 0 0 0 0 0 176 197 337 323 321 110 158 299 501 408 398 344 184 6 16 27 21 19 11 8
0 0 0 0 0 0 0 0 0 0 0 0 0 0 0 0 0 55 326 580 539 588 578 566 386 285 140 12 12 19 15 12 4
0 0 0 0 0 0 0 0 0 0 0 0 0 0 0 0 7 199 408 492 643 485 696 710 622 425 265 176 18 17 14 11 10
0 0 0 0 0 0 0 0 0 0 0 0 0 0 0 0 0 0 0 162 386 625 635 749 759 724 573 426 249 235 16 15 13
0 0 0 0 0 0 0 0 0 0 0 0 0 0 0 0 0 0 0 0 308 363 691 726 696 676 769 752 460 308 236 20 16
0 0 0 0 0 0 0 0 0 0 0 0 0 0 0 0 0 0 0 0 0 0 408 628 613 578 650 757 746 554 396 408 361
0 0 0 0 0 0 0 0 0 0 0 0 0 0 0 0 0 0 0 0 0 0 0 0 285 676 676 700 726 760 674 667 598
0 0 0 0 0 0 0 0 0 0 0 0 0 0 0 0 0 0 0 0 0 0 0 0 0 24 146 639 855 755 794 789 848
0 0 0 0 0 0 0 0 0 0 0 0 0 0 0 0 0 0 0 0 0 0 0 0 0 0 1 84 203 302 436 902 842
0 0 0 0 0 0 0 0 0 0 0 0 0 0 0 0 0 0 0 0 0 0 0 0 0 0 0 0 0 3 111 378 718
0 0 0 0 0 0 0 0 0 0 0 0 0 0 0 0 0 0 0 0 0 0 0 0 0 0 0 0 0 0 0 11 488
0 0 0 0 0 0 0 0 0 0 0 0 0 0 0 0 0 0 0 0 0 0 0 0 0 0 0 0 0 0 0 0 2
0 0 0 0 0 0 0 0 0 0 0 0 0 0 0 0 0 0 0 0 0 0 0 0 0 0 0 0 0 0 0 0 0
3 0 0 0 0 0 0 0 0 0 0 0 0 0 0 0 0 0 0 0 0 0 0 0 0 0 0 0 0 0 0 5 7
17 1 1 0 0 0 0 0 0 0 0 0 0 0 0 0 0 0 0 0 0 0 0 0 0 0 0 0 0 0 0 0 0
11 15 2 4 0 0 0 0 0 0 0 0 0 0 0 0 0 0 0 0 0 0 0 0 0 0 0 0 0 0 0 0 0
8 8 6 4 10 0 0 0 0 0 0 0 0 0 0 0 0 0 0 0 0 0 0 0 0 0 0 0 0 0 0 0 0
CIN
0 0 0 0 -1 -2 0 0 -1 -2 -2 -1 -1 0 0 0 -14 -37 0 -24 -20 -3 0 -9 0 0 0 0 0 0 0 0 0
0 0 0 0 0 0 0 0 -9 -1 0 -2 0 0 -1 -5 -59 -86 0 0 -26 0 0 -9 -1 0 0 0 0 0 0 0 0
0 0 0 0 0 0 0 0 0 0 -24 -18 0 -2 -2 -4 -19 -105 0 -5 -18 0 0 -8 -3 0 0 0 0 0 0 0 0
0 0 0 0 0 0 0 0 0 0 0 0 -5 -11 -28 -20 -33 -52 -95 -62 -18 0 0 -1 0 -3 0 0 0 0 0 0 0
0 0 0 0 0 0 0 0 0 0 0 0 0 0 0 -1 0 -123 -62 -25 -11 -1 0 0 0 -1 0 0 0 0 0 0 0
0 0 0 0 0 0 0 0 0 0 0 0 0 0 0 0 -151 -47 -7 -16 -4 -6 0 0 -1 0 0 -4 0 -2 -1 0 0
0 0 0 0 0 0 0 0 0 0 0 0 0 0 0 0 0 0 0 -31 -7 0 -3 0 0 0 0 0 -4 -1 -1 -1 0
0 0 0 0 0 0 0 0 0 0 0 0 0 0 0 0 0 0 0 0 -1 -3 -1 -1 -1 0 0 0 0 0 -1 0 -1
0 0 0 0 0 0 0 0 0 0 0 0 0 0 0 0 0 0 0 0 0 0 -7 0 -2 -3 0 0 0 0 0 0 0
0 0 0 0 0 0 0 0 0 0 0 0 0 0 0 0 0 0 0 0 0 0 0 0 0 0 0 0 0 0 0 0 0
0 0 0 0 0 0 0 0 0 0 0 0 0 0 0 0 0 0 0 0 0 0 0 0 -1 0 -2 0 0 0 0 0 0
0 0 0 0 0 0 0 0 0 0 0 0 0 0 0 0 0 0 0 0 0 0 0 0 0 0 -6 0 0 0 0 0 0
0 0 0 0 0 0 0 0 0 0 0 0 0 0 0 0 0 0 0 0 0 0 0 0 0 0 0 0 0 -48 -14 -87 0
0 0 0 0 0 0 0 0 0 0 0 0 0 0 0 0 0 0 0 0 0 0 0 0 0 0 0 0 0 0 0 -19 0
0 0 0 0 0 0 0 0 0 0 0 0 0 0 0 0 0 0 0 0 0 0 0 0 0 0 0 0 0 0 0 0 -20
0 0 0 0 0 0 0 0 0 0 0 0 0 0 0 0 0 0 0 0 0 0 0 0 0 0 0 0 0 0 0 0 0
0 -1 0 0 0 0 0 0 0 0 0 0 0 0 0 0 0 0 0 0 0 0 0 0 0 0 0 0 0 0 0 0 0
-1 -3 -1 0 0 0 0 0 0 0 0 0 0 0 0 0 0 0 0 0 0 0 0 0 0 0 0 0 0 0 0 0 0
-1 0 -1 0 0 0 0 0 0 0 0 0 0 0 0 0 0 0 0 0 0 0 0 0 0 0 0 0 0 0 0 0 0
0 0 0 0 0 0 0 0 0 0 0 0 0 0 0 0 0 0 0 0 0 0 0 0 0 0 0 0 0 0 0 0 0
Wind_Speed
15 16 17 17 17 15 15 13 10 8 9 10 11 11 12 10 6 5 6 6 12 17 14 13 13 13 11 10 10 10 9 10 9
18 14 14 14 14 14 14 13 13 12 8 9 7 10 13 8 6 5 5 6 11 20 18 16 15 13 13 12 12 11 11 10 10
18 20 18 14 16 14 13 13 13 12 11 13 13 9 6 6 6 6 5 10 11 19 19 18 18 17 15 14 14 13 13 11 11
24 20 20 18 17 15 14 13 13 13 13 12 11 12 9 4 4 6 4 13 15 19 19 19 20 19 17 16 16 15 14 13 12
21 24 17 18 21 17 15 14 14 13 14 12 12 7 8 5 5 4 5 15 14 17 21 20 21 21 20 18 18 16 16 14 14
14 18 24 24 21 20 17 13 15 12 11 11 11 10 3 5 4 2 12 13 16 15 23 22 22 22 21 21 19 18 17 16 15
14 16 22 22 24 18 17 15 15 10 3 4 8 3 5 4 4 3 13 12 9 19 18 22 23 22 23 22 21 20 18 18 17
5 5 6 6 14 7 7 6 4 4 3 3 4 4 4 3 3 5 11 13 10 11 20 21 23 23 23 22 21 21 21 20 19
5 4 5 6 6 7 6 4 5 6 4 3 4 5 4 3 3 6 13 12 12 9 10 17 21 22 22 22 22 22 22 23 21
6 6 5 6 5 5 7 5 4 5 5 3 2 4 6 5 3 3 13 12 11 11 8 11 14 21 20 19 20 21 22 21 21
7 7 6 5 4 7 5 5 4 5 4 4 2 2 4 5 5 3 5 11 11 11 11 12 8 15 13 10 21 19 20 22 21
9 7 7 5 5 6 6 8 5 4 4 5 4 3 3 4 6 4 3 4 10 12 13 14 14 12 7 11 16 16 16 23 22
9 8 5 5 5 4 4 4 6 4 4 3 5 3 3 4 5 4 3 3 3 7 13 15 16 16 15 10 8 14 18 22 19
8 8 8 6 4 4 4 4 6 5 4 5 5 4 4 5 3 3 4 5 3 3 9 15 15 17 16 15 13 11 14 18 16
13 11 9 6 5 4 4 5 4 4 5 6 5 4 4 4 4 5 3 4 6 5 4 4 6 11 11 10 13 14 15 16 17
13 9 10 8 7 10 7 5 6 5 4 2 2 3 5 5 5 4 4 4 5 5 4 3 3 3 7 11 10 10 12 13 18
12 10 10 12 10 9 9 10 5 4 4 5 2 2 3 2 5 4 3 4 3 5 6 5 4 3 3 6 10 10 11 11 12
14 13 12 12 8 8 9 8 8 4 3 6 4 2 5 1 2 5 4 3 2 4 5 5 5 3 2 4 5 7 11 13 15
15 15 13 13 9 8 7 6 5 5 4 2 6 2 4 4 3 3 3 4 4 5 4 4 5 4 1 1 5 9 9 12 15
14 15 14 13 10 10 9 9 6 6 5 5 3 3 2 2 3 4 4 2 3 4 4 4 3 4 2 2 5 9 11 14 15
Wind_Direction
348 349 350 351 354 352 344 341 324 304 271 261 246 242 241 235 226 220 224 233 249 212 196 184 176 178 175 174 165 158 155 157 153
338 339 336 339 339 339 338 337 323 319 311 314 292 256 249 243 224 227 222 240 250 205 199 187 182 187 176 180 174 172 167 165 163
324 327 326 318 322 323 323 322 319 316 311 305 299 298 298 281 245 240 217 233 252 208 207 191 186 183 186 185 184 179 177 171 174
333 315 316 315 310 314 311 309 311 313 311 303 296 285 310 290 260 250 231 237 234 232 215 200 188 187 187 186 186 182 180 178 179
329 322 305 303 310 300 303 304 305 305 308 310 310 320 306 299 285 265 249 243 233 237 214 205 200 193 191 189 193 192 185 187 185
325 318 323 309 304 297 292 299 309 315 341 330 327 338 324 300 303 286 291 288 258 253 224 212 205 200 195 192 197 194 191 190 189
317 319 318 319 315 299 303 294 298 316 312 321 334 334 331 325 320 313 319 310 285 253 247 220 212 205 199 198 196 195 198 194 194
295 298 300 304 306 296 283 287 278 270 283 310 321 327 340 328 316 317 330 338 316 315 240 226 215 214 209 202 201 199 197 198 195
272 270 272 284 289 292 281 275 261 266 258 268 315 325 329 329 318 327 329 334 333 330 314 240 225 219 219 212 206 206 206 200 195
276 261 259 271 280 285 279 253 258 267 253 263 303 319 321 331 332 327 325 329 332 330 318 280 300 232 226 220 216 211 211 211 209
275 265 251 249 264 282 267 259 230 229 247 273 265 281 305 316 327 329 334 342 353 343 330 325 338 320 306 258 227 224 223 220 215
271 271 270 248 257 266 283 263 239 212 231 234 241 255 273 298 307 314 318 333 341 342 340 330 322 315 327 345 329 283 260 228 219
267 269 262 255 242 251 256 270 273 222 218 226 246 252 266 263 277 301 310 318 320 325 324 321 318 317 312 300 291 309 309 269 223
263 266 267 246 239 245 238 262 245 241 215 217 227 236 242 259 271 262 288 303 305 291 310 314 317 310 302 297 291 273 283 301 269
274 269 265 247 240 238 235 230 232 251 213 218 209 221 235 245 242 252 267 284 296 295 286 298 305 312 316 304 299 292 278 274 280
291 284 269 251 245 259 236 238 226 249 234 138 279 261 239 244 239 238 246 275 278 288 270 260 241 294 340 339 330 345 320 298 296
276 282 282 263 251 243 240 236 234 230 186 199 128 233 309 269 237 227 238 264 282 281 264 220 234 246 297 309 319 330 329 331 313
271 267 268 270 249 238 231 222 189 204 238 213 162 124 222 189 272 236 230 227 259 276 277 270 249 240 265 318 309 328 333 326 320
275 270 258 266 260 229 216 226 209 163 215 238 240 267 145 183 262 279 229 210 243 273 278 258 267 264 247 235 298 306 317 331 320
265 268 261 258 256 256 232 230 212 206 197 184 196 212 184 199 161 234 272 329 245 247 252 261 272 283 340 332 296 302 302 308 307